Home > Weather > Mersin > Past weeks

Flag for Turkey Weather for the Past 2 Weeks in Mersin, Turkey

Now
43 °F

Fog.


Feels Like: 43 °F
Forecast: 35 / 56 °F
Wind: No wind

Location: Adana / Sakirpasa

Current Time: Feb 11, 2016 at 1:12:33 AM

Latest Report: Feb 11, 2016 at 12:20 AM


Visibility: 3 mi

Pressure: 30.12 "Hg

Humidity: 76%

Dew point: 36 °F

Location of MersinLocation

Historic Weather in Mersin — Graph

°F

Mersin Temperature Yesterday

Maximum temperature yesterday: 63 °F (at 12:50 PM)
Minimum temperature yesterday: 41 °F (at 1:20 AM)
Average temperature yesterday: 52 °F

High & Low Weather Summary for the Past Weeks

 TemperatureHumidityPressure
High70 °F (Feb 5, 12:50 PM)94% (Feb 1, 2:20 AM)30.42 "Hg (Feb 1, 2:20 AM)
Low27 °F (Jan 27, 4:20 AM)16% (Jan 27, 3:20 PM)29.77 "Hg (Feb 6, 1:20 PM)
Average50 °F57%30.20 "Hg
* Reported Jan 26 10:20 PM — Feb 10 10:50 PM, Mersin, Weather by CustomWeather, © 2016

Note: Actual official high and low records may vary slightly from our data, if they occured in-between our weather recording intervals... More about our weather records

Advertising

Mersin Weather History for the Previous 24 Hours

 ConditionsComfort  
Time TempWeatherWind HumidityBarometerVisibility
10:50 PM
Wed, Feb 10
48 °FHaze.3 mph62%30.12 "Hg2 mi
10:20 PM48 °FHaze.3 mph66%30.12 "Hg3 mi
9:50 PM48 °FRain. Haze.No wind66%30.12 "Hg2 mi
9:20 PM48 °FRain. Haze.No wind62%30.12 "Hg2 mi
8:50 PM50 °FHaze.No wind58%30.12 "Hg2 mi
8:20 PM48 °FHaze.No wind62%30.12 "Hg2 mi
7:50 PM50 °FHaze.No wind58%30.12 "Hg2 mi
7:20 PM52 °FHaze.No wind54%30.09 "Hg2 mi
6:50 PM52 °FHaze.No wind54%30.12 "Hg2 mi
6:20 PM54 °FHaze.5 mph47%30.12 "Hg2 mi
5:50 PM55 °FPassing clouds.1 mph47%30.09 "Hg4 mi
5:20 PM59 °FPassing clouds.No wind34%30.09 "Hg6 mi
4:50 PM61 °FPassing clouds.3 mph31%30.09 "HgN/A
4:20 PM63 °FPassing clouds.2 mph30%30.09 "HgN/A
3:50 PM63 °FPassing clouds.1 mph25%30.07 "HgN/A
3:20 PM63 °FPassing clouds.5 mph25%30.09 "HgN/A
2:50 PM63 °FPassing clouds.2 mph25%30.09 "HgN/A
2:20 PM63 °FScattered clouds.1 mph27%30.09 "HgN/A
1:50 PM63 °FScattered clouds.6 mph30%30.09 "HgN/A
1:20 PM63 °FScattered clouds.9 mph30%30.09 "HgN/A
12:50 PM63 °FScattered clouds.7 mph30%30.09 "HgN/A
12:20 PM61 °FScattered clouds.8 mph31%30.09 "HgN/A
11:50 AM61 °FScattered clouds.9 mph31%30.12 "HgN/A
11:20 AM61 °FScattered clouds.9 mph31%30.12 "HgN/A
10:50 AM59 °FPartly sunny.8 mph39%30.15 "HgN/A
10:20 AM55 °FPartly sunny.9 mph41%30.15 "HgN/A
9:50 AM55 °FPartly sunny.7 mph41%30.15 "HgN/A
9:20 AM54 °FPartly sunny.9 mph44%30.15 "HgN/A
8:50 AM52 °FPassing clouds.7 mph50%30.15 "HgN/A
8:20 AM50 °FPartly sunny.6 mph54%30.18 "HgN/A
7:50 AM46 °FPartly sunny.No wind66%30.18 "HgN/A
7:20 AM43 °FPartly sunny.5 mph71%30.18 "HgN/A
6:50 AM45 °FPassing clouds.3 mph66%30.15 "HgN/A
6:20 AM43 °FPassing clouds.No wind71%30.18 "HgN/A
5:50 AM43 °FPassing clouds.5 mph71%30.15 "HgN/A
5:20 AM41 °FPassing clouds.3 mph81%30.15 "HgN/A
4:50 AM43 °FPassing clouds.3 mph71%30.15 "HgN/A
4:20 AM43 °FPassing clouds.5 mph71%30.15 "HgN/A
3:50 AM41 °FPassing clouds.3 mph76%30.15 "HgN/A
3:20 AM43 °FPassing clouds.5 mph76%30.18 "HgN/A
2:20 AM43 °FPassing clouds.5 mph76%30.18 "HgN/A
1:50 AM43 °FPassing clouds.5 mph76%30.18 "HgN/A
1:20 AM41 °FPassing clouds.5 mph81%30.18 "HgN/A
Weather by CustomWeather, © 2016

See weather overviewHow to use our weather pages